Date,Time,Wetness (Wet Dry or Ice),Wind Speed (m/s),Temperature (C),Humidity (%),Pressure (mb),Radiation (W/m^2)
2020-04-18,02:55:00,DRY,6.30,-0.25,89.0,768.00,5.2
2020-04-18,03:00:00,DRY,5.53,-0.10,95.0,768.00,2.1
2020-04-18,03:05:00,DRY,6.10,-0.05,96.5,768.00,2.0
2020-04-18,03:10:00,DRY,4.87,-0.13,91.3,768.00,1.8
2020-04-18,03:15:00,DRY,5.35,-0.25,92.5,768.00,1.8
2020-04-18,03:20:00,DRY,6.40,-0.17,92.3,768.00,1.7
2020-04-18,03:25:00,DRY,4.70,-0.15,91.0,768.00,1.8
2020-04-18,03:30:00,DRY,6.25,-0.25,97.5,768.00,1.6
2020-04-18,03:35:00,DRY,6.45,0.05,100.0,768.00,3.6
2020-04-18,03:40:00,DRY,5.63,0.07,100.0,768.00,64.7
2020-04-18,03:45:00,DRY,4.70,-0.30,100.0,768.00,57.1
2020-04-18,03:50:00,DRY,6.03,-0.37,100.0,768.00,6.1
2020-04-18,03:55:00,DRY,6.65,0.05,100.0,768.00,6.3
2020-04-18,04:00:00,DRY,5.77,0.07,100.0,768.00,30.1
2020-04-18,04:05:00,DRY,6.15,-0.40,96.5,768.00,10.4
2020-04-18,04:10:00,DRY,5.40,-0.47,97.3,768.00,4.8
2020-04-18,04:15:00,DRY,6.95,0.05,59.0,768.00,2.5
2020-04-18,04:20:00,DRY,4.83,0.10,61.7,768.00,2.1
2020-04-18,04:25:00,DRY,6.35,-0.55,81.0,768.00,2.1
2020-04-18,04:30:00,DRY,6.20,-0.33,63.0,768.00,2.1
2020-04-18,04:35:00,DRY,6.50,-0.45,63.5,768.00,1.9
2020-04-18,04:40:00,DRY,6.40,-0.33,59.7,768.00,1.7
2020-04-18,04:45:00,DRY,5.65,-0.30,61.5,768.00,1.9
2020-04-18,04:50:00,DRY,5.90,-0.70,68.0,768.00,1.7
2020-04-18,04:55:00,DRY,6.30,-1.05,80.0,768.00,1.5
2020-04-18,05:00:00,DRY,5.23,-1.23,86.7,768.00,1.4
2020-04-18,05:05:00,DRY,4.90,-1.35,91.0,768.00,1.6
2020-04-18,05:10:00,DRY,5.93,-1.30,86.7,768.00,1.4
2020-04-18,05:15:00,DRY,6.40,-1.20,88.0,768.00,1.6
2020-04-18,05:20:00,DRY,6.80,-1.23,91.0,768.00,1.7
2020-04-18,05:25:00,DRY,7.30,-1.40,96.5,768.00,1.7
2020-04-18,05:30:00,DRY,7.17,-1.33,94.7,768.00,1.5
2020-04-18,05:35:00,DRY,7.00,-1.20,96.0,768.00,2.5
2020-04-18,05:40:00,DRY,7.93,-1.10,98.7,768.00,1.8
2020-04-18,05:45:00,DRY,6.90,-1.05,99.5,768.00,1.7
2020-04-18,05:50:00,DRY,7.03,-0.93,100.0,768.00,2.0
2020-04-18,05:55:00,DRY,6.05,-1.05,100.0,768.00,1.9
2020-04-18,06:00:00,DRY,6.00,-0.97,100.0,768.00,1.9
2020-04-18,06:05:00,DRY,7.50,-0.85,100.0,768.00,2.1
2020-04-18,06:10:00,DRY,8.07,-0.77,100.0,768.00,2.5
2020-04-18,06:15:00,DRY,7.30,-0.70,100.0,768.00,2.3
2020-04-18,06:20:00,DRY,7.03,-0.67,100.0,768.00,2.8
2020-04-18,06:25:00,DRY,6.80,-0.55,100.0,768.00,2.3
2020-04-18,06:30:00,DRY,34.13,-0.77,100.0,768.00,2.2
2020-04-18,06:35:00,DRY,,-0.75,100.0,768.00,3.3
2020-04-18,06:40:00,DRY,,-0.60,100.0,768.00,5.1
2020-04-18,06:45:00,DRY,,-0.55,100.0,768.00,6.2
2020-04-18,06:50:00,DRY,,-0.70,100.0,768.00,18.0
2020-04-18,06:55:00,DRY,,-1.10,100.0,768.00,24.6
2020-04-18,07:00:00,DRY,,-0.97,100.0,768.00,41.7
2020-04-18,07:05:00,DRY,,-0.65,100.0,768.00,33.0
2020-04-18,07:10:00,DRY,,-0.50,100.0,768.00,51.2
2020-04-18,07:15:00,DRY,,-0.70,100.0,768.00,58.8
2020-04-18,07:20:00,DRY,,-0.47,100.0,768.00,64.3
2020-04-18,07:25:00,DRY,,-0.40,100.0,768.00,72.0
2020-04-18,07:30:00,DRY,,-0.43,100.0,768.00,90.5
2020-04-18,07:35:00,DRY,,-0.35,100.0,769.00,93.3
2020-04-18,07:40:00,DRY,,-0.47,100.0,768.67,96.9
2020-04-18,07:45:00,DRY,,-0.45,100.0,768.00,50.2
2020-04-18,07:50:00,DRY,,-0.57,100.0,768.33,135.1
2020-04-18,07:55:00,DRY,,-0.45,100.0,768.00,196.6
2020-04-18,08:00:00,ICE,,-0.10,100.0,768.67,86.6
2020-04-18,08:05:00,WET,,0.00,100.0,769.00,77.5
2020-04-18,08:10:00,WET,,0.00,100.0,768.67,81.9
2020-04-18,08:15:00,WET,,0.00,100.0,769.00,174.9
2020-04-18,08:20:00,WET,,0.00,100.0,769.00,223.1
2020-04-18,08:25:00,WET,,0.00,100.0,769.00,444.9
2020-04-18,08:30:00,DRY,,0.03,100.0,769.00,397.1
2020-04-18,08:35:00,DRY,47.55,0.20,100.0,769.00,522.8
2020-04-18,08:40:00,DRY,34.80,0.17,100.0,769.00,424.8
2020-04-18,08:45:00,DRY,47.65,0.20,100.0,769.00,548.0
2020-04-18,08:50:00,DRY,62.50,0.23,100.0,769.00,483.7
2020-04-18,08:55:00,DRY,,0.15,100.0,769.00,193.1
2020-04-18,09:00:00,WET,,0.30,100.0,769.00,195.5
2020-04-18,09:05:00,WET,48.25,0.65,100.0,769.00,189.6
2020-04-18,09:10:00,WET,7.57,0.47,100.0,769.00,202.4
2020-04-18,09:15:00,WET,8.70,0.90,100.0,769.00,263.1
2020-04-18,09:20:00,WET,8.27,0.90,100.0,769.00,241.3
2020-04-18,09:25:00,DRY,8.20,0.70,100.0,769.00,695.0
2020-04-18,09:30:00,WET,7.50,0.83,100.0,769.00,297.5
2020-04-18,09:35:00,WET,8.40,0.50,100.0,769.00,273.0
2020-04-18,09:40:00,WET,8.57,0.63,100.0,769.00,346.2
2020-04-18,09:45:00,WET,6.50,0.65,100.0,769.00,224.1
2020-04-18,09:50:00,WET,9.13,0.57,100.0,769.00,268.3
2020-04-18,09:55:00,WET,9.90,0.45,100.0,769.00,463.7
2020-04-18,10:00:00,DRY,8.53,0.63,100.0,769.00,639.8
2020-04-18,10:05:00,DRY,7.70,0.50,100.0,769.00,294.6
2020-04-18,10:10:00,WET,10.07,0.73,100.0,769.00,307.8
2020-04-18,10:15:00,WET,7.80,0.85,100.0,769.00,219.2
2020-04-18,10:20:00,WET,8.40,1.03,100.0,769.00,265.1
2020-04-18,10:25:00,WET,8.40,0.65,100.0,769.00,312.3
2020-04-18,10:30:00,DRY,7.90,0.50,100.0,769.67,520.5
2020-04-18,10:35:00,DRY,8.55,0.75,100.0,769.50,469.2
2020-04-18,10:40:00,DRY,8.73,0.63,100.0,769.67,466.6
2020-04-18,10:45:00,DRY,7.75,0.70,100.0,770.00,542.5
2020-04-18,10:50:00,DRY,8.80,0.83,100.0,770.00,437.7
2020-04-18,10:55:00,DRY,9.60,0.95,100.0,769.50,487.3
2020-04-18,11:00:00,DRY,6.53,0.97,100.0,770.00,372.1
2020-04-18,11:05:00,WET,8.15,0.80,100.0,770.00,355.7
2020-04-18,11:10:00,DRY,7.83,1.00,100.0,770.00,667.8
2020-04-18,11:15:00,DRY,7.60,1.15,100.0,770.00,381.1
2020-04-18,11:20:00,DRY,7.83,1.03,100.0,770.00,577.7
2020-04-18,11:25:00,DRY,7.05,1.15,100.0,770.00,483.8
2020-04-18,11:30:00,DRY,7.90,1.00,100.0,769.67,755.3
2020-04-18,11:35:00,DRY,6.60,1.55,100.0,770.00,813.2
2020-04-18,11:40:00,DRY,7.97,1.47,100.0,770.00,493.7
2020-04-18,11:45:00,DRY,9.45,1.10,100.0,769.50,724.5
2020-04-18,11:50:00,DRY,7.37,0.97,100.0,770.00,541.6
2020-04-18,11:55:00,DRY,6.90,1.50,100.0,770.00,346.9
2020-04-18,12:00:00,DRY,6.60,1.23,100.0,770.00,719.4
2020-04-18,12:05:00,DRY,8.40,1.60,100.0,770.00,842.0
2020-04-18,12:10:00,DRY,8.50,1.63,100.0,770.00,513.1
2020-04-18,12:15:00,DRY,7.55,1.35,100.0,770.00,478.6
2020-04-18,12:20:00,DRY,8.03,1.47,100.0,770.00,424.3
2020-04-18,12:25:00,DRY,7.05,1.15,100.0,770.00,803.4
2020-04-18,12:30:00,DRY,6.60,1.33,100.0,770.00,854.8
2020-04-18,12:35:00,DRY,7.25,1.55,100.0,770.00,565.3
2020-04-18,12:40:00,DRY,6.30,1.43,100.0,770.00,540.1
2020-04-18,12:45:00,DRY,7.85,1.30,100.0,770.00,420.4
2020-04-18,12:50:00,DRY,7.90,1.37,100.0,770.00,1008.5
2020-04-18,12:55:00,DRY,7.50,1.40,100.0,770.00,842.8
2020-04-18,13:00:00,DRY,7.63,1.23,100.0,770.00,1285.6
2020-04-18,13:05:00,DRY,7.30,1.45,100.0,770.00,1124.7
2020-04-18,13:10:00,DRY,4.83,1.60,100.0,770.00,796.3
2020-04-18,13:15:00,DRY,4.60,1.60,100.0,770.00,648.9
2020-04-18,13:20:00,DRY,6.47,1.77,100.0,770.00,1168.5
2020-04-18,13:25:00,DRY,6.15,2.40,100.0,770.00,990.8
2020-04-18,13:30:00,DRY,6.20,1.60,100.0,770.00,1230.1
2020-04-18,13:35:00,DRY,2.70,1.70,98.0,770.00,541.9
2020-04-18,13:40:00,DRY,6.40,1.77,98.7,770.00,347.1
2020-04-18,13:45:00,DRY,11.25,2.30,99.5,770.00,798.0
2020-04-18,13:50:00,DRY,6.00,2.27,100.0,770.00,731.8
2020-04-18,13:55:00,DRY,7.60,2.25,100.0,770.00,608.5
2020-04-18,14:00:00,WET,4.90,1.93,99.3,770.00,627.0
2020-04-18,14:05:00,DRY,6.90,2.05,100.0,770.00,417.4
2020-04-18,14:10:00,DRY,5.90,1.80,100.0,770.00,868.4
2020-04-18,14:15:00,DRY,5.25,1.60,100.0,770.00,666.6
2020-04-18,14:20:00,DRY,6.50,1.83,100.0,770.00,453.9
2020-04-18,14:25:00,DRY,6.50,1.50,100.0,770.00,1013.8
2020-04-18,14:30:00,DRY,5.63,1.73,100.0,770.00,784.2
2020-04-18,14:35:00,DRY,6.95,1.85,100.0,770.00,618.2
2020-04-18,14:40:00,DRY,6.03,1.57,98.7,770.00,1174.0
2020-04-18,14:45:00,DRY,5.05,1.80,98.0,770.00,995.0
2020-04-18,14:50:00,DRY,4.53,1.40,95.7,770.00,1121.4
2020-04-18,14:55:00,DRY,4.80,1.45,94.0,770.00,1056.5
2020-04-18,15:00:00,DRY,4.37,1.73,97.3,770.00,541.7
2020-04-18,15:05:00,DRY,4.20,1.90,98.0,770.00,516.4
2020-04-18,15:10:00,DRY,4.13,2.00,98.3,770.00,952.4
2020-04-18,15:15:00,DRY,6.00,1.95,96.5,770.00,867.2
2020-04-18,15:20:00,DRY,3.50,1.87,96.0,770.00,812.8
2020-04-18,15:25:00,DRY,4.00,2.05,96.0,770.00,1033.2
2020-04-18,15:30:00,DRY,4.37,2.43,91.7,770.00,816.6
2020-04-18,15:35:00,DRY,5.20,2.40,94.0,770.00,988.9
2020-04-18,15:40:00,DRY,5.13,2.47,89.3,770.00,850.8
2020-04-18,15:45:00,DRY,5.35,2.40,92.0,770.00,684.4
2020-04-18,15:50:00,DRY,4.40,2.10,90.7,770.00,991.2
2020-04-18,15:55:00,DRY,6.45,2.20,88.5,770.00,1016.9
2020-04-18,16:00:00,DRY,4.57,2.03,91.0,770.00,684.9
2020-04-18,16:05:00,DRY,4.25,2.20,87.5,770.00,747.1
2020-04-18,16:10:00,DRY,4.13,2.30,91.3,770.00,933.9
2020-04-18,16:15:00,DRY,4.40,2.00,90.0,770.00,650.0
2020-04-18,16:20:00,DRY,4.60,2.07,91.3,770.00,741.1
2020-04-18,16:25:00,DRY,4.45,1.85,90.0,770.00,924.0
2020-04-18,16:30:00,DRY,3.60,1.93,91.7,770.00,788.5
2020-04-18,16:35:00,DRY,4.60,2.05,89.0,770.00,547.3
2020-04-18,16:40:00,DRY,3.80,2.10,91.7,770.00,809.8
2020-04-18,16:45:00,DRY,4.15,2.15,89.5,770.00,725.5
2020-04-18,16:50:00,DRY,4.67,1.90,89.0,770.00,561.5
2020-04-18,16:55:00,DRY,4.50,1.95,91.0,770.00,863.2
2020-04-18,17:00:00,DRY,3.47,1.97,93.7,770.00,460.1
2020-04-18,17:05:00,DRY,6.90,1.65,94.5,770.00,412.4
2020-04-18,17:10:00,DRY,4.97,1.57,87.0,770.00,475.8
2020-04-18,17:15:00,DRY,4.75,1.55,92.0,770.00,604.0
2020-04-18,17:20:00,DRY,5.73,1.60,92.0,770.00,544.4
2020-04-18,17:25:00,DRY,6.40,1.85,91.0,770.00,611.9
2020-04-18,17:30:00,DRY,6.27,1.80,82.7,770.00,566.8
2020-04-18,17:35:00,DRY,6.65,1.95,79.5,770.00,550.0
2020-04-18,17:40:00,DRY,6.73,2.23,94.0,770.00,458.4
2020-04-18,17:45:00,DRY,6.95,1.70,94.5,770.00,336.1
2020-04-18,17:50:00,DRY,4.40,1.30,96.7,770.00,492.5
2020-04-18,17:55:00,DRY,4.75,2.00,90.5,770.00,462.6
2020-04-18,18:00:00,DRY,4.17,2.00,91.0,770.33,345.6
2020-04-18,18:05:00,DRY,3.65,1.70,95.0,770.00,375.8
2020-04-18,18:10:00,DRY,3.53,1.63,89.0,770.00,368.6
2020-04-18,18:15:00,DRY,4.00,1.85,89.0,770.00,356.5
2020-04-18,18:20:00,DRY,5.00,2.20,86.3,771.00,310.1
2020-04-18,18:25:00,DRY,5.90,2.30,70.5,771.00,312.2
2020-04-18,18:30:00,DRY,4.23,2.30,56.0,771.00,294.2
2020-04-18,18:35:00,DRY,5.85,2.45,59.0,770.50,266.1
2020-04-18,18:40:00,DRY,5.30,2.43,56.7,771.00,135.4
2020-04-18,18:45:00,DRY,5.10,1.85,65.0,771.00,52.5
2020-04-18,18:50:00,DRY,4.13,1.83,68.3,771.00,48.2
2020-04-18,18:55:00,DRY,4.30,1.50,71.0,771.00,47.9
2020-04-18,19:00:00,DRY,5.07,1.17,80.3,771.00,44.3
2020-04-18,19:05:00,DRY,6.45,1.65,69.5,771.00,40.8
2020-04-18,19:10:00,DRY,5.13,1.70,71.7,771.00,37.6
2020-04-18,19:15:00,DRY,5.60,1.50,80.0,771.00,35.2
2020-04-18,19:20:00,DRY,4.87,1.20,86.7,771.00,34.3
2020-04-18,19:25:00,DRY,5.30,0.80,93.0,771.00,36.6
2020-04-18,19:30:00,DRY,3.07,0.57,96.3,771.00,50.8
2020-04-18,19:35:00,DRY,5.70,0.50,98.0,771.00,42.5
2020-04-18,19:40:00,DRY,5.80,0.23,99.3,771.00,34.1
2020-04-18,19:45:00,DRY,6.25,-0.05,96.5,771.00,21.8
2020-04-18,19:50:00,WET,7.17,0.87,98.7,771.00,26.2
2020-04-18,19:55:00,WET,8.70,1.50,100.0,771.00,45.0
2020-04-18,20:00:00,WET,7.47,1.53,100.0,771.00,51.8
2020-04-18,20:05:00,WET,6.55,1.45,100.0,771.00,95.6
2020-04-18,20:10:00,WET,5.53,1.30,100.0,771.00,93.2
2020-04-18,20:15:00,WET,5.65,1.35,100.0,771.00,90.8
2020-04-18,20:20:00,WET,7.23,1.33,100.0,771.00,76.8
2020-04-18,20:25:00,WET,5.55,1.25,100.0,771.00,72.7
2020-04-18,20:30:00,WET,4.80,0.83,100.0,771.67,66.1
2020-04-18,20:35:00,WET,7.35,0.75,100.0,772.00,64.7
2020-04-18,20:40:00,WET,5.93,0.70,100.0,772.00,64.6
2020-04-18,20:45:00,WET,5.20,0.90,100.0,772.00,65.5
2020-04-18,20:50:00,WET,5.37,1.03,100.0,772.00,60.7
2020-04-18,20:55:00,WET,6.30,1.05,100.0,772.00,177.8
2020-04-18,21:00:00,WET,7.07,0.70,100.0,772.00,281.8
2020-04-18,21:05:00,WET,6.60,0.40,100.0,772.00,274.2
2020-04-18,21:10:00,WET,5.67,0.57,100.0,772.00,327.2
2020-04-18,21:15:00,WET,4.75,0.70,100.0,772.00,376.0
2020-04-18,21:20:00,WET,5.30,0.77,100.0,772.00,333.1
2020-04-18,21:25:00,WET,6.30,0.25,100.0,772.00,292.4
2020-04-18,21:30:00,ICE,5.33,-0.03,100.0,772.00,274.5
2020-04-18,21:35:00,ICE,5.40,-0.25,100.0,772.00,240.3
2020-04-18,21:40:00,DRY,6.60,-0.27,92.0,772.00,236.9
2020-04-18,21:45:00,DRY,4.20,0.10,93.0,772.00,222.6
2020-04-18,21:50:00,DRY,4.50,0.00,88.0,772.00,213.0
2020-04-18,21:55:00,DRY,4.50,-0.05,82.0,772.00,200.9
2020-04-18,22:00:00,DRY,5.93,0.07,76.0,772.00,103.8
2020-04-18,22:05:00,DRY,6.75,0.90,48.0,772.00,249.6
2020-04-18,22:10:00,DRY,5.47,0.60,66.0,772.00,208.7
2020-04-18,22:15:00,DRY,6.55,0.70,57.5,772.00,142.2
2020-04-18,22:20:00,DRY,3.67,1.03,61.0,773.00,126.5
2020-04-18,22:25:00,DRY,4.30,0.45,62.5,772.50,125.6
2020-04-18,22:30:00,DRY,2.50,1.00,58.7,772.33,107.9
2020-04-18,22:35:00,DRY,3.65,0.25,73.5,773.00,92.1
2020-04-18,22:40:00,DRY,4.53,0.43,67.0,772.33,54.5
2020-04-18,22:45:00,DRY,5.10,0.25,73.5,772.00,35.1
2020-04-18,22:50:00,DRY,4.97,0.47,61.7,773.00,35.4
2020-04-18,22:55:00,DRY,5.65,1.65,41.0,773.00,38.2
2020-04-18,23:00:00,DRY,6.10,2.30,34.3,773.00,33.7
2020-04-18,23:05:00,DRY,6.85,2.80,30.5,773.00,27.0
2020-04-18,23:10:00,DRY,5.93,2.87,33.7,773.00,27.0
2020-04-18,23:15:00,DRY,5.45,2.80,30.0,772.50,26.4
2020-04-18,23:20:00,DRY,3.87,2.90,31.3,772.67,24.9
2020-04-18,23:25:00,DRY,4.35,2.55,34.0,772.50,24.2
2020-04-18,23:30:00,DRY,5.83,2.30,36.0,772.00,22.6
2020-04-18,23:35:00,DRY,3.60,1.80,46.0,772.00,22.1
2020-04-18,23:40:00,DRY,5.43,2.13,33.7,772.00,22.1
2020-04-18,23:45:00,DRY,5.55,2.45,34.0,772.00,21.9
2020-04-18,23:50:00,DRY,5.47,2.90,29.7,772.00,20.7
2020-04-18,23:55:00,DRY,5.65,2.95,29.5,772.00,20.8
2020-04-19,00:00:00,DRY,6.80,3.03,29.3,772.00,20.3
2020-04-19,00:05:00,DRY,6.20,3.25,25.5,772.00,18.6
2020-04-19,00:10:00,DRY,6.07,3.00,31.0,772.00,19.0
2020-04-19,00:15:00,DRY,5.75,2.75,34.0,772.00,19.4
2020-04-19,00:20:00,DRY,7.10,3.10,27.7,772.33,18.5
2020-04-19,00:25:00,DRY,4.80,3.70,28.0,772.00,19.4
2020-04-19,00:30:00,DRY,4.97,2.40,38.0,772.00,19.4
2020-04-19,00:35:00,DRY,4.75,2.55,36.5,772.00,18.8
2020-04-19,00:40:00,DRY,4.77,2.57,33.7,772.00,19.1
2020-04-19,00:45:00,DRY,5.30,2.75,34.5,773.00,18.8
2020-04-19,00:50:00,DRY,5.40,3.03,33.0,772.67,18.5
2020-04-19,00:55:00,DRY,5.65,2.70,30.5,773.00,17.8
2020-04-19,01:00:00,DRY,4.80,2.93,27.0,772.00,18.1
2020-04-19,01:05:00,DRY,6.45,2.95,29.5,772.00,16.9
2020-04-19,01:10:00,DRY,7.17,2.93,25.3,772.67,15.5
2020-04-19,01:15:00,DRY,6.55,3.20,22.0,772.50,14.4
2020-04-19,01:20:00,DRY,4.60,3.30,23.7,772.33,14.4
2020-04-19,01:25:00,DRY,3.85,2.80,24.5,772.50,14.3
2020-04-19,01:30:00,DRY,4.17,2.73,27.3,773.00,14.7
2020-04-19,01:35:00,DRY,5.05,2.60,25.0,772.00,14.4
2020-04-19,01:40:00,DRY,4.93,2.87,24.3,773.00,14.3
2020-04-19,01:45:00,DRY,4.15,2.80,26.0,772.50,13.9
2020-04-19,01:50:00,DRY,4.63,2.37,29.7,772.33,13.5
2020-04-19,01:55:00,DRY,4.05,2.15,34.5,772.00,13.3
2020-04-19,02:00:00,DRY,6.27,2.33,32.0,772.00,14.1
2020-04-19,02:05:00,DRY,5.40,2.55,30.0,772.50,13.7
2020-04-19,02:10:00,DRY,4.17,2.90,28.7,772.00,14.0
2020-04-19,02:15:00,DRY,4.25,2.85,27.0,772.00,13.8
2020-04-19,02:20:00,DRY,4.27,3.00,23.7,772.00,12.9
2020-04-19,02:25:00,DRY,4.30,3.00,23.0,772.00,12.4
2020-04-19,02:30:00,DRY,4.57,3.67,19.0,772.00,12.0
2020-04-19,02:35:00,DRY,4.85,3.70,18.0,772.00,11.9
2020-04-19,02:40:00,DRY,5.33,3.60,20.3,772.00,11.5
2020-04-19,02:45:00,DRY,5.65,3.25,24.0,772.00,11.7
2020-04-19,02:50:00,DRY,4.77,3.10,26.7,772.00,11.5
2020-04-19,02:55:00,DRY,5.10,2.50,33.5,772.00,11.3
2020-04-19,03:00:00,DRY,5.50,2.10,33.7,772.00,11.0
2020-04-19,03:05:00,DRY,5.80,1.55,39.5,772.00,10.8
2020-04-19,03:10:00,DRY,6.07,1.97,31.7,772.00,10.2
2020-04-19,03:15:00,DRY,5.75,1.95,34.0,772.00,10.6
2020-04-19,03:20:00,DRY,5.83,2.13,31.0,772.00,10.1
2020-04-19,03:25:00,DRY,5.40,1.85,28.5,772.00,9.2
2020-04-19,03:30:00,DRY,5.30,1.87,24.0,772.00,9.0
2020-04-19,03:35:00,DRY,5.45,2.60,22.0,772.00,8.2
2020-04-19,03:40:00,DRY,4.30,2.07,26.7,772.00,7.2
2020-04-19,03:45:00,DRY,5.05,2.30,23.0,772.00,5.0
2020-04-19,03:50:00,DRY,6.50,2.23,25.7,772.00,4.0
2020-04-19,03:55:00,DRY,5.40,2.20,26.5,772.00,3.0
2020-04-19,04:00:00,DRY,5.27,1.97,29.3,772.00,2.0
2020-04-19,04:05:00,DRY,3.60,2.25,31.5,772.00,1.9
2020-04-19,04:10:00,DRY,6.37,2.17,34.3,772.00,1.4
2020-04-19,04:15:00,DRY,3.30,2.25,32.0,772.00,1.7
2020-04-19,04:20:00,DRY,5.27,1.93,32.3,772.00,1.3
2020-04-19,04:25:00,DRY,5.40,2.05,34.0,772.00,1.5
2020-04-19,04:30:00,DRY,4.37,2.20,33.0,772.00,1.1
2020-04-19,04:35:00,DRY,6.40,2.45,28.5,772.00,1.3
2020-04-19,04:40:00,DRY,6.43,2.77,25.7,772.00,1.4
2020-04-19,04:45:00,DRY,4.65,3.05,28.0,772.00,1.1
2020-04-19,04:50:00,DRY,3.97,2.47,36.7,772.00,1.6
2020-04-19,04:55:00,DRY,4.15,2.15,41.0,772.00,1.2
2020-04-19,05:00:00,DRY,4.70,1.60,44.7,772.00,1.2
2020-04-19,05:05:00,DRY,4.95,1.85,42.0,772.00,1.4
2020-04-19,05:10:00,DRY,5.60,2.30,39.0,772.00,1.4
2020-04-19,05:15:00,DRY,5.65,2.60,36.5,772.00,1.4
2020-04-19,05:20:00,DRY,4.60,2.17,45.0,772.00,1.1
2020-04-19,05:25:00,DRY,5.05,1.85,48.0,772.00,1.1
2020-04-19,05:30:00,DRY,5.60,2.10,43.0,772.00,1.3
2020-04-19,05:35:00,DRY,6.10,2.50,44.0,772.00,0.8
2020-04-19,05:40:00,DRY,5.13,2.20,42.0,772.00,1.3
2020-04-19,05:45:00,DRY,5.30,2.25,35.5,772.00,0.8
2020-04-19,05:50:00,DRY,4.97,2.20,31.7,772.00,1.4
2020-04-19,05:55:00,DRY,6.85,2.40,30.0,772.00,1.4
2020-04-19,06:00:00,DRY,5.33,2.00,35.3,772.00,1.4
2020-04-19,06:05:00,DRY,4.80,2.05,36.0,772.00,1.1
2020-04-19,06:10:00,DRY,5.10,2.03,35.7,772.00,1.1
2020-04-19,06:15:00,DRY,7.00,2.20,32.0,772.00,1.3
2020-04-19,06:20:00,DRY,5.73,1.97,36.0,772.00,1.4
2020-04-19,06:25:00,DRY,5.85,1.90,38.0,772.00,1.9
2020-04-19,06:30:00,DRY,5.70,1.90,36.7,772.00,2.9
2020-04-19,06:35:00,DRY,4.95,2.25,31.0,772.50,4.8
2020-04-19,06:40:00,DRY,6.07,2.43,29.7,772.33,9.2
2020-04-19,06:45:00,DRY,5.05,2.30,33.0,773.00,17.6
2020-04-19,06:50:00,DRY,5.63,2.20,35.0,772.67,30.1
2020-04-19,06:55:00,DRY,5.50,2.35,35.0,772.50,48.1
2020-04-19,07:00:00,DRY,4.57,2.80,33.3,773.00,70.8
2020-04-19,07:05:00,DRY,5.70,2.45,35.5,772.50,96.1
2020-04-19,07:10:00,DRY,6.10,2.97,28.3,773.00,119.1
2020-04-19,07:15:00,DRY,6.20,3.80,23.0,773.00,139.4
2020-04-19,07:20:00,DRY,5.57,4.47,21.3,773.00,160.6
2020-04-19,07:25:00,DRY,6.45,4.85,21.5,773.00,182.2
2020-04-19,07:30:00,DRY,4.27,5.00,21.0,773.00,205.7
2020-04-19,07:35:00,DRY,5.40,4.55,23.0,773.00,227.9
2020-04-19,07:40:00,DRY,5.37,4.63,23.7,773.00,251.2
2020-04-19,07:45:00,DRY,4.75,4.75,24.5,773.00,273.9
2020-04-19,07:50:00,DRY,5.40,4.67,26.0,773.00,298.2
2020-04-19,07:55:00,DRY,5.35,4.65,25.5,773.00,321.6
2020-04-19,08:00:00,DRY,6.17,5.23,22.0,773.00,346.2
2020-04-19,08:05:00,DRY,5.85,5.15,22.5,773.00,369.3
2020-04-19,08:10:00,DRY,5.83,5.57,21.3,773.00,392.5
2020-04-19,08:15:00,DRY,5.20,5.40,24.0,773.00,415.0
2020-04-19,08:20:00,DRY,4.40,5.07,27.7,773.00,438.1
2020-04-19,08:25:00,DRY,5.20,4.90,30.0,773.00,461.1
2020-04-19,08:30:00,DRY,4.60,5.03,25.3,773.00,483.7
2020-04-19,08:35:00,DRY,5.05,5.70,21.0,773.00,506.4
2020-04-19,08:40:00,DRY,6.07,6.43,15.7,773.00,529.0
2020-04-19,08:45:00,DRY,6.20,6.50,15.5,773.00,551.9
2020-04-19,08:50:00,DRY,6.10,6.57,14.0,773.00,573.4
2020-04-19,08:55:00,DRY,5.35,6.45,16.5,773.00,594.9
2020-04-19,09:00:00,DRY,5.73,6.40,16.3,773.00,616.4
2020-04-19,09:05:00,DRY,4.80,6.30,16.5,773.00,637.5
2020-04-19,09:10:00,DRY,5.37,6.53,14.0,773.00,658.1
2020-04-19,09:15:00,DRY,5.65,6.60,12.5,773.50,678.8
2020-04-19,09:20:00,DRY,5.30,6.50,13.7,774.00,698.7
2020-04-19,09:25:00,DRY,5.30,6.80,12.5,774.00,718.3
2020-04-19,09:30:00,DRY,6.57,6.87,12.0,774.00,737.5
2020-04-19,09:35:00,DRY,6.10,6.90,16.0,774.00,757.0
2020-04-19,09:40:00,DRY,5.80,6.90,19.0,774.00,774.8
2020-04-19,09:45:00,DRY,5.15,6.75,18.5,774.00,792.9
2020-04-19,09:50:00,DRY,4.67,6.67,23.0,774.00,811.2
2020-04-19,09:55:00,DRY,4.75,6.60,24.5,774.00,828.8
2020-04-19,10:00:00,DRY,5.67,6.97,22.7,774.00,846.3
2020-04-19,10:05:00,DRY,5.45,6.95,26.5,774.00,863.3
2020-04-19,10:10:00,DRY,4.80,7.17,27.0,774.00,882.0
2020-04-19,10:15:00,DRY,5.75,7.15,19.0,774.00,897.5
2020-04-19,10:20:00,DRY,5.80,7.27,18.3,774.00,912.6
2020-04-19,10:25:00,DRY,5.75,7.10,21.0,774.00,928.0
2020-04-19,10:30:00,DRY,5.80,7.33,20.0,774.00,942.5
2020-04-19,10:35:00,DRY,6.55,7.35,22.0,774.00,957.0
2020-04-19,10:40:00,DRY,4.50,6.93,24.3,774.00,970.4
2020-04-19,10:45:00,DRY,5.25,7.10,27.0,774.00,985.0
2020-04-19,10:50:00,DRY,5.00,6.97,33.3,774.00,997.6
2020-04-19,10:55:00,DRY,5.20,7.05,40.0,774.00,1010.0
2020-04-19,11:00:00,DRY,5.30,6.87,32.3,774.00,1023.8
2020-04-19,11:05:00,DRY,4.10,6.80,37.0,774.00,1035.7
2020-04-19,11:10:00,DRY,4.50,6.77,35.3,774.00,1047.3
2020-04-19,11:15:00,DRY,3.90,6.60,28.5,775.00,1059.2
2020-04-19,11:20:00,DRY,4.47,7.17,29.7,774.33,1069.1
2020-04-19,11:25:00,DRY,4.90,7.05,24.0,774.00,1078.9
2020-04-19,11:30:00,DRY,4.57,7.03,24.0,774.67,1087.6
2020-04-19,11:35:00,DRY,4.80,7.05,32.0,774.50,1097.2
2020-04-19,11:40:00,DRY,4.57,7.27,26.3,775.00,1106.1
2020-04-19,11:45:00,DRY,3.50,6.85,26.5,775.00,1113.7
2020-04-19,11:50:00,DRY,5.00,6.97,30.7,774.33,1121.1
2020-04-19,11:55:00,DRY,3.85,6.95,35.5,775.00,1127.9
2020-04-19,12:00:00,DRY,3.97,6.77,36.0,774.33,1134.5
2020-04-19,12:05:00,DRY,3.60,6.70,29.5,774.50,1140.8
2020-04-19,12:10:00,DRY,3.57,7.00,39.3,775.00,1146.5
2020-04-19,12:15:00,DRY,4.35,6.95,38.5,775.00,1152.4
2020-04-19,12:20:00,DRY,4.73,7.57,29.0,775.00,1155.3
2020-04-19,12:25:00,DRY,5.60,7.80,20.5,775.00,1159.4
2020-04-19,12:30:00,DRY,5.40,8.20,30.3,774.67,1163.3
2020-04-19,12:35:00,DRY,5.00,8.55,31.5,774.50,1167.5
2020-04-19,12:40:00,DRY,4.53,8.43,30.3,774.33,1170.1
2020-04-19,12:45:00,DRY,4.90,7.90,26.5,774.50,1173.2
2020-04-19,12:50:00,DRY,6.07,8.40,27.3,774.33,1175.0
2020-04-19,12:55:00,DRY,4.35,8.20,19.5,774.50,1178.3
2020-04-19,13:00:00,DRY,5.37,8.53,18.3,774.00,1178.6
2020-04-19,13:05:00,DRY,5.40,8.95,20.0,774.00,1178.7
2020-04-19,13:10:00,DRY,5.77,8.83,16.7,774.00,1179.1
2020-04-19,13:15:00,DRY,5.85,8.95,19.0,774.00,1178.4
2020-04-19,13:20:00,DRY,5.30,9.07,18.7,774.00,1178.0
2020-04-19,13:25:00,DRY,5.75,8.60,24.5,774.00,1176.4
2020-04-19,13:30:00,DRY,6.10,8.20,31.0,775.00,1174.7
2020-04-19,13:35:00,DRY,5.00,7.40,34.0,774.00,1172.8
2020-04-19,13:40:00,DRY,4.90,7.50,29.0,774.33,1170.5
2020-04-19,13:45:00,DRY,5.70,8.05,31.0,774.50,1168.4
2020-04-19,13:50:00,DRY,5.07,7.63,26.3,774.00,1163.7
2020-04-19,13:55:00,DRY,4.90,8.05,24.0,774.00,1161.3
2020-04-19,14:00:00,DRY,4.73,7.60,26.3,774.00,1155.1
2020-04-19,14:05:00,DRY,4.90,7.20,31.5,774.00,1151.8
2020-04-19,14:10:00,DRY,4.77,7.40,24.7,774.00,1144.3
2020-04-19,14:15:00,DRY,5.15,6.85,26.0,774.00,1137.6
2020-04-19,14:20:00,DRY,4.90,7.00,26.3,774.00,1129.7
2020-04-19,14:25:00,DRY,4.60,7.50,26.5,774.00,1122.3
2020-04-19,14:30:00,DRY,5.60,7.30,28.3,774.00,1114.5
2020-04-19,14:35:00,DRY,6.80,6.90,29.0,774.00,1105.1
2020-04-19,14:40:00,DRY,6.63,7.20,32.3,774.00,1095.6
2020-04-19,14:45:00,DRY,5.35,7.50,33.5,774.00,1085.9
2020-04-19,14:50:00,DRY,5.47,7.23,38.3,774.00,1076.2
2020-04-19,14:55:00,DRY,5.35,7.05,36.5,774.00,1065.2
2020-04-19,15:00:00,DRY,5.47,6.90,31.0,774.00,1055.5
2020-04-19,15:05:00,DRY,5.20,7.00,28.0,774.00,1046.1
2020-04-19,15:10:00,DRY,5.17,6.97,34.0,774.00,1032.6
2020-04-19,15:15:00,DRY,5.30,6.95,30.5,774.00,1020.2
2020-04-19,15:20:00,DRY,4.87,6.93,29.7,774.00,1008.5
2020-04-19,15:25:00,DRY,4.80,7.75,30.5,774.00,995.9
2020-04-19,15:30:00,DRY,5.60,7.40,27.3,774.00,981.4
2020-04-19,15:35:00,DRY,5.35,7.55,31.5,774.00,967.2
2020-04-19,15:40:00,DRY,5.80,7.97,19.3,774.00,953.8
2020-04-19,15:45:00,DRY,5.45,7.90,12.5,774.00,938.5
2020-04-19,15:50:00,DRY,5.23,8.67,10.0,774.00,922.7
2020-04-19,15:55:00,DRY,5.30,8.35,20.0,774.00,907.4
2020-04-19,16:00:00,DRY,5.13,8.40,12.3,774.00,891.4
2020-04-19,16:05:00,DRY,4.80,8.15,14.0,774.00,874.7
2020-04-19,16:10:00,DRY,4.07,8.20,21.3,774.00,857.7
2020-04-19,16:15:00,DRY,4.55,8.20,22.0,774.00,840.3
2020-04-19,16:20:00,DRY,5.53,8.07,16.0,774.00,822.8
2020-04-19,16:25:00,DRY,5.30,8.50,20.0,774.00,804.6
2020-04-19,16:30:00,DRY,5.70,8.37,18.0,774.00,786.2
2020-04-19,16:35:00,DRY,5.70,7.90,17.0,774.00,768.6
2020-04-19,16:40:00,DRY,5.47,8.03,20.3,774.00,749.1
2020-04-19,16:45:00,DRY,5.05,8.35,12.0,774.00,731.2
2020-04-19,16:50:00,DRY,6.13,8.30,16.3,774.00,711.0
2020-04-19,16:55:00,DRY,4.55,8.10,12.5,774.00,689.9
2020-04-19,17:00:00,DRY,4.83,8.23,12.7,774.00,670.2
2020-04-19,17:05:00,DRY,4.00,7.75,15.0,774.00,649.0
2020-04-19,17:10:00,DRY,5.27,7.87,12.3,774.00,627.1
2020-04-19,17:15:00,DRY,5.10,7.60,15.0,774.00,605.3